Find Starlink 31464

NORAD ID: 59318 Int'l Des: 2024-056 Owner: SPXS Country: US Constellation: starlink operational
LEOCIRCULAR

Live-Position

3D-Globus wird geladen...

Über Starlink 31464

Beschreibung wird geladen...

Nächste Überflüge

Passes for default location (London). Set your location on the main map for personalized predictions.

Höhenverlauf

Loading altitude history...

Zweizeiliger Elementsatz

1 59318U 24056Y 26132.94670206 -.00000436 00000-0 -63225-5 0 9999
2 59318 42.9996 227.6415 0001205 270.5440 89.5273 15.27581010120988
Epoch: 12. Mai 2026 • Age: 15 hours

Aktueller Status

Höhe 484.5 km
Geschwindigkeit 7.63 km/s
Subsatellitenpunkt 31.32°N, 68.79°W
Startdatum 24. März 2024
Alter 2.1 years
Typ internet

Technische Details

Klassifizierung Payload
Masse 730.00 kg
Trockenmasse 700.00 kg
Gesamtmasse 730.00 kg
Länge 0.30 m
Durchmesser 4.10 m
Spannweite 29.00 m
Form Box + pan
Hersteller SPXS
Bus-Typ Starlink V2M
Phasenstatus In Orbit
Besitzer/Staat SPXS/US

Most Searched